Weather in Lyangasovo

Russia / Kirov Oblast     58°31′11″N   49°27′13″E
temp.,
°C
wind,
m/s
gust,
m/s
humid.,
%
clouds,
%
prec.,
mm/h
press.,
hPa
HPBL,
m
9 march, tue
tue900:00−13n359699 0.1 1002109
03:00−16n239795 0.1 100478
06:00−17n359791 0.1 1006131
09:00−15nne359293 0.2 1009355
12:00−13nne3488100 0.1 1010481
15:00−13nne4590100 0.2 1011520
18:00−15nne4895100 0.2 1013396
21:00−18nne499498 0.3 1015369
10 march, wed
wed1000:00−23nne499797 0.0 1016252
03:00−26nne489660 0.0 1017176
06:00−28n489667 0.0 1018190
09:00−24n489241 0.0 1020335
12:00−19n47849 0.0 1019553
15:00−16nnw478017 0.0 1019857
18:00−19nw3695100 0.0 1020105
21:00−22nw359784 0.0 102082
11 march, thu
thu1100:00−23wnw369733 0.0 1020146
03:00−20wnw489667 0.3 1019315
06:00−17wnw4996100 0.1 1018403
09:00−12nw5989100 0.4 1018617
12:00−8nw61088100 0.1 1018694
15:00−6nw61080100 0.1 1019936
18:00−10wnw51287100 0.0 1020398
21:00−13wnw4109375 0.0 1021246
12 march, fri
fri1200:00−15w4109337 0.0 1022200
03:00−15w499456 0.0 1023250
06:00−17w499389 0.0 1024194
09:00−13w5108993 0.0 1024370
12:00−9w6108193 0.0 1024611
15:00−9w6117993 0.0 1024669
18:00−11wsw5128519 0.0 1025330
21:00−13wsw5129110 0.0 1026290
13 march, sat
sat1300:00−16wsw410940 0.0 1027205
03:00−17sw49950 0.0 1028180
06:00−18sw49940 0.0 1028173
09:00−13sw49850 0.0 1028303
12:00−7sw510750 0.0 1027580
15:00−6ssw610770 0.0 1026745
18:00−10s512860 0.0 1025335
21:00−12ssw513890 0.0 1025409